Regional Weather Roundup
Issued by NWS Goodland, KS

Home | Current Version | Previous Version | Graphics & Text | Print | Product List | Glossary On
Versions: 1 2 3 4 5 6 7 8 9 10 11 12 13 14 15 16 17 18 19 20 21 22 23 24 25 26 27 28 29 30 31 32 33 34 35 36 37 38 39 40 41 42 43 44 45 46 47 48 49 50
000
ASUS43 KGLD 230459
RWRGLD

GOODLAND FORECAST AREA HOURLY WEATHER ROUNDUP
NATIONAL WEATHER SERVICE GOODLAND KS
1100 PM MDT WED OCT 22 2014

...OFFICIAL OBSERVATIONS...

CITY           SKY/WX    TMP DP  RH WIND       PRES   REMARKS
GOODLAND KS    PTCLDY    49  44  83 SE5       30.10F
HILL CITY KS   CLEAR     54  52  93 CALM      30.06F
IMPERIAL NEB   CLEAR     47  33  58 CALM      30.09S
MCCOOK NEB     CLEAR     48  45  89 CALM      30.07S
AKRON CO       CLEAR     49  33  54 SE6       30.13S
BURLINGTON CO  PTCLDY    48  41  76 SW5       30.12R
LIMON CO       CLOUDY    47  45  93 CALM      30.17S
$$

...UNOFFICIAL OBSERVATIONS...

CITY           SKY/WX    TMP DP  RH WIND       PRES   REMARKS
COLBY KS       CLEAR     46  46 100 CALM      30.09S
GOVE KS          N/A     55  32  41 MISG        N/A
NORTON KS      FOG       48  46  93 CALM      30.05S VSB 1/4
SHARON SPRINGS   N/A     54  47  78 E6          N/A
TRIBUNE KS     PTCLDY    57  54  88 NE9       30.08F
TRENTON NEB      N/A     51  32  48 CALM        N/A
KIT CARSON CO    N/A     49  41  75 CALM        N/A
YUMA CO          N/A     43  33  67 CALM        N/A
$$



USA.gov is the U.S. government's official web portal to all federal, state and local government web resources and services.